Time,TemperatureF,DewpointF,PressureIn,WindDirection,WindDirectionDegrees,WindSpeedMPH,WindSpeedGustMPH,Humidity,HourlyPrecipIn,Conditions,Clouds,dailyrainin,SoftwareType,DateUTC
2013-05-25 00:06:00,45.6,44.0,29.95,WNW,291,14.0,22.0,92,0.01,,,0.31,weatherlink.com 1.10,2013-05-25 04:06:00,
2013-05-25 00:21:00,45.7,44.0,29.95,NW,304,26.0,26.0,92,0.02,,,0.32,weatherlink.com 1.10,2013-05-25 04:21:00,
2013-05-25 00:36:00,45.6,44.0,29.95,WNW,294,12.0,26.0,93,0.02,,,0.33,weatherlink.com 1.10,2013-05-25 04:36:00,
2013-05-25 00:51:00,45.5,44.0,29.94,WNW,298,15.0,25.0,93,0.02,,,0.33,weatherlink.com 1.10,2013-05-25 04:51:00,
2013-05-25 01:06:00,45.3,43.0,29.93,WNW,294,22.0,24.0,93,0.03,,,0.34,weatherlink.com 1.10,2013-05-25 05:06:00,
2013-05-25 01:21:00,45.4,44.0,29.93,NW,310,17.0,22.0,93,0.02,,,0.34,weatherlink.com 1.10,2013-05-25 05:21:00,
2013-05-25 01:36:00,45.3,43.0,29.93,WNW,286,19.0,25.0,93,0.01,,,0.34,weatherlink.com 1.10,2013-05-25 05:36:00,
2013-05-25 01:51:00,45.3,43.0,29.93,WNW,299,17.0,21.0,93,0.02,,,0.35,weatherlink.com 1.10,2013-05-25 05:51:00,
2013-05-25 02:06:00,45.1,43.0,29.92,West,281,16.0,24.0,93,0.01,,,0.35,weatherlink.com 1.10,2013-05-25 06:06:00,
2013-05-25 02:21:00,45.1,43.0,29.92,WNW,289,11.0,22.0,93,0.01,,,0.35,weatherlink.com 1.10,2013-05-25 06:21:00,
2013-05-25 02:36:00,45.0,43.0,29.92,WNW,298,19.0,25.0,92,0.01,,,0.35,weatherlink.com 1.10,2013-05-25 06:36:00,
2013-05-25 02:52:00,45.1,43.0,29.92,WNW,303,21.0,23.0,92,0.00,,,0.35,weatherlink.com 1.10,2013-05-25 06:52:00,
2013-05-25 03:06:00,45.2,43.0,29.92,NW,306,12.0,24.0,92,0.00,,,0.35,weatherlink.com 1.10,2013-05-25 07:06:00,
2013-05-25 03:21:00,45.1,43.0,29.92,NW,311,15.0,24.0,91,0.00,,,0.35,weatherlink.com 1.10,2013-05-25 07:21:00,
2013-05-25 03:36:00,45.1,43.0,29.92,WNW,296,21.0,22.0,91,0.00,,,0.35,weatherlink.com 1.10,2013-05-25 07:36:00,
2013-05-25 03:51:00,45.2,43.0,29.91,WNW,291,13.0,23.0,91,0.00,,,0.35,weatherlink.com 1.10,2013-05-25 07:51:00,
2013-05-25 04:06:00,45.3,43.0,29.91,WNW,287,13.0,25.0,90,0.00,,,0.35,weatherlink.com 1.10,2013-05-25 08:06:00,
2013-05-25 04:21:00,45.5,43.0,29.91,WNW,292,19.0,27.0,90,0.00,,,0.35,weatherlink.com 1.10,2013-05-25 08:21:00,
2013-05-25 04:36:00,45.7,43.0,29.91,WNW,295,19.0,27.0,89,0.00,,,0.35,weatherlink.com 1.10,2013-05-25 08:36:00,
2013-05-25 04:51:00,45.6,43.0,29.92,WNW,296,21.0,26.0,89,0.00,,,0.35,weatherlink.com 1.10,2013-05-25 08:51:00,
2013-05-25 05:06:00,45.4,43.0,29.92,WNW,286,16.0,29.0,90,0.02,,,0.37,weatherlink.com 1.10,2013-05-25 09:06:00,
2013-05-25 05:21:00,45.3,43.0,29.92,WNW,285,19.0,23.0,91,0.04,,,0.39,weatherlink.com 1.10,2013-05-25 09:21:00,
2013-05-25 05:36:00,45.4,43.0,29.92,WNW,302,16.0,23.0,91,0.07,,,0.42,weatherlink.com 1.10,2013-05-25 09:36:00,
2013-05-25 05:51:00,45.4,43.0,29.92,West,280,13.0,24.0,92,0.09,,,0.44,weatherlink.com 1.10,2013-05-25 09:51:00,
2013-05-25 06:07:00,45.7,44.0,29.92,NW,304,15.0,26.0,92,0.10,,,0.02,weatherlink.com 1.10,2013-05-25 10:07:00,
2013-05-25 06:22:00,45.9,44.0,29.93,WNW,284,22.0,25.0,92,0.08,,,0.02,weatherlink.com 1.10,2013-05-25 10:22:00,
2013-05-25 06:37:00,46.1,44.0,29.93,WNW,290,22.0,23.0,93,0.05,,,0.02,weatherlink.com 1.10,2013-05-25 10:37:00,
2013-05-25 06:52:00,46.1,44.0,29.93,WNW,294,20.0,29.0,93,0.03,,,0.02,weatherlink.com 1.10,2013-05-25 10:52:00,
2013-05-25 07:07:00,46.1,44.0,29.93,WNW,283,12.0,27.0,93,0.00,,,0.02,weatherlink.com 1.10,2013-05-25 11:07:00,
2013-05-25 07:22:00,46.2,44.0,29.93,WNW,292,17.0,23.0,93,0.00,,,0.02,weatherlink.com 1.10,2013-05-25 11:22:00,
2013-05-25 07:37:00,46.4,45.0,29.93,WNW,302,18.0,25.0,93,0.00,,,0.02,weatherlink.com 1.10,2013-05-25 11:37:00,
2013-05-25 07:52:00,46.4,45.0,29.93,WNW,302,16.0,24.0,93,0.00,,,0.02,weatherlink.com 1.10,2013-05-25 11:52:00,
2013-05-25 08:07:00,47.0,45.0,29.93,WNW,293,17.0,22.0,92,0.00,,,0.02,weatherlink.com 1.10,2013-05-25 12:07:00,
2013-05-25 08:22:00,47.4,45.0,29.93,WNW,301,17.0,27.0,91,0.01,,,0.03,weatherlink.com 1.10,2013-05-25 12:22:00,
2013-05-25 08:37:00,47.9,45.0,29.93,NW,316,17.0,28.0,90,0.01,,,0.03,weatherlink.com 1.10,2013-05-25 12:37:00,
2013-05-25 08:52:00,48.0,45.0,29.93,WNW,292,27.0,31.0,89,0.01,,,0.03,weatherlink.com 1.10,2013-05-25 12:52:00,
2013-05-25 09:07:00,48.3,45.0,29.93,NW,309,21.0,31.0,89,0.01,,,0.03,weatherlink.com 1.10,2013-05-25 13:07:00,
2013-05-25 09:22:00,49.0,46.0,29.93,WNW,294,22.0,30.0,88,0.00,,,0.03,weatherlink.com 1.10,2013-05-25 13:22:00,
2013-05-25 09:37:00,49.8,46.0,29.93,NW,304,25.0,31.0,86,0.00,,,0.03,weatherlink.com 1.10,2013-05-25 13:37:00,
2013-05-25 09:52:00,50.6,46.0,29.93,WNW,302,24.0,30.0,83,0.00,,,0.03,weatherlink.com 1.10,2013-05-25 13:52:00,
2013-05-25 10:07:00,51.3,46.0,29.93,WNW,300,15.0,34.0,81,0.00,,,0.03,weatherlink.com 1.10,2013-05-25 14:07:00,
2013-05-25 10:22:00,51.4,45.0,29.92,NW,322,18.0,28.0,80,0.00,,,0.03,weatherlink.com 1.10,2013-05-25 14:22:00,
2013-05-25 10:37:00,51.9,45.0,29.93,WNW,296,24.0,34.0,77,0.00,,,0.03,weatherlink.com 1.10,2013-05-25 14:37:00,
2013-05-25 10:52:00,52.7,45.0,29.93,WNW,293,24.0,28.0,76,0.00,,,0.03,weatherlink.com 1.10,2013-05-25 14:52:00,
2013-05-25 11:07:00,52.8,45.0,29.93,WNW,298,23.0,30.0,75,0.00,,,0.03,weatherlink.com 1.10,2013-05-25 15:07:00,
2013-05-25 11:22:00,53.0,44.0,29.93,WNW,286,27.0,33.0,72,0.00,,,0.03,weatherlink.com 1.10,2013-05-25 15:22:00,
2013-05-25 11:37:00,53.7,45.0,29.93,NW,311,22.0,38.0,73,0.00,,,0.03,weatherlink.com 1.10,2013-05-25 15:37:00,
2013-05-25 11:52:00,54.9,44.0,29.93,NW,320,14.0,31.0,67,0.00,,,0.03,weatherlink.com 1.10,2013-05-25 15:52:00,
2013-05-25 12:07:00,55.3,43.0,29.93,NW,305,24.0,39.0,64,0.00,,,0.03,weatherlink.com 1.10,2013-05-25 16:07:00,
2013-05-25 12:23:00,55.1,44.0,29.93,NW,307,38.0,39.0,66,0.00,,,0.03,weatherlink.com 1.10,2013-05-25 16:23:00,
2013-05-25 12:38:00,54.8,44.0,29.93,NW,319,21.0,35.0,68,0.00,,,0.03,weatherlink.com 1.10,2013-05-25 16:38:00,
2013-05-25 12:53:00,55.3,43.0,29.93,NW,305,32.0,37.0,63,0.00,,,0.03,weatherlink.com 1.10,2013-05-25 16:53:00,
2013-05-25 13:08:00,55.8,43.0,29.93,WNW,292,14.0,40.0,63,0.00,,,0.03,weatherlink.com 1.10,2013-05-25 17:08:00,
2013-05-25 13:23:00,55.1,43.0,29.94,NW,320,28.0,41.0,64,0.00,,,0.03,weatherlink.com 1.10,2013-05-25 17:23:00,
2013-05-25 13:39:00,55.2,43.0,29.93,NW,311,18.0,34.0,64,0.00,,,0.03,weatherlink.com 1.10,2013-05-25 17:39:00,
2013-05-25 13:53:00,55.0,44.0,29.94,NW,313,33.0,35.0,66,0.00,,,0.03,weatherlink.com 1.10,2013-05-25 17:53:00,
2013-05-25 14:08:00,54.4,43.0,29.94,WNW,299,22.0,46.0,66,0.00,,,0.03,weatherlink.com 1.10,2013-05-25 18:08:00,
2013-05-25 14:23:00,53.9,43.0,29.94,WNW,290,22.0,35.0,67,0.00,,,0.03,weatherlink.com 1.10,2013-05-25 18:23:00,
2013-05-25 14:38:00,54.4,43.0,29.94,NW,304,20.0,35.0,66,0.00,,,0.03,weatherlink.com 1.10,2013-05-25 18:38:00,
2013-05-25 14:53:00,55.8,43.0,29.93,WNW,302,17.0,38.0,63,0.00,,,0.03,weatherlink.com 1.10,2013-05-25 18:53:00,
2013-05-25 15:08:00,56.3,42.0,29.93,WNW,302,20.0,37.0,60,0.01,,,0.04,weatherlink.com 1.10,2013-05-25 19:08:00,
2013-05-25 15:23:00,56.8,41.0,29.93,WNW,294,22.0,41.0,57,0.01,,,0.04,weatherlink.com 1.10,2013-05-25 19:23:00,
2013-05-25 15:38:00,57.3,42.0,29.94,NW,318,25.0,36.0,58,0.01,,,0.04,weatherlink.com 1.10,2013-05-25 19:38:00,
2013-05-25 15:53:00,56.1,43.0,29.93,WNW,292,20.0,39.0,63,0.01,,,0.04,weatherlink.com 1.10,2013-05-25 19:53:00,
2013-05-25 16:08:00,57.5,42.0,29.92,NW,319,7.0,32.0,56,0.00,,,0.04,weatherlink.com 1.10,2013-05-25 20:08:00,
2013-05-25 16:23:00,58.2,41.0,29.93,WNW,298,17.0,31.0,54,0.00,,,0.04,weatherlink.com 1.10,2013-05-25 20:23:00,
2013-05-25 16:38:00,58.3,42.0,29.93,WNW,303,21.0,28.0,55,0.00,,,0.04,weatherlink.com 1.10,2013-05-25 20:38:00,
2013-05-25 16:53:00,57.1,42.0,29.94,NW,309,17.0,31.0,57,0.00,,,0.04,weatherlink.com 1.10,2013-05-25 20:53:00,
2013-05-25 17:08:00,57.8,41.0,29.93,NW,316,19.0,36.0,53,0.00,,,0.04,weatherlink.com 1.10,2013-05-25 21:08:00,
2013-05-25 17:23:00,58.1,41.0,29.94,NW,320,15.0,32.0,54,0.00,,,0.04,weatherlink.com 1.10,2013-05-25 21:23:00,
2013-05-25 17:38:00,58.7,41.0,29.94,NW,321,18.0,25.0,52,0.00,,,0.04,weatherlink.com 1.10,2013-05-25 21:38:00,
2013-05-25 17:53:00,58.6,41.0,29.95,NW,306,16.0,25.0,52,0.00,,,0.04,weatherlink.com 1.10,2013-05-25 21:53:00,
2013-05-25 18:08:00,58.4,40.0,29.95,NW,304,15.0,23.0,51,0.00,,,0.04,weatherlink.com 1.10,2013-05-25 22:08:00,
2013-05-25 18:23:00,58.0,40.0,29.96,WNW,296,20.0,30.0,51,0.00,,,0.04,weatherlink.com 1.10,2013-05-25 22:23:00,
2013-05-25 18:38:00,57.8,39.0,29.96,NW,304,18.0,30.0,50,0.00,,,0.04,weatherlink.com 1.10,2013-05-25 22:38:00,
2013-05-25 18:53:00,57.7,38.0,29.97,NW,321,24.0,29.0,48,0.00,,,0.04,weatherlink.com 1.10,2013-05-25 22:53:00,
2013-05-25 19:08:00,57.6,38.0,29.98,NW,318,19.0,24.0,49,0.00,,,0.04,weatherlink.com 1.10,2013-05-25 23:08:00,
2013-05-25 19:23:00,57.4,38.0,29.99,NW,311,15.0,27.0,48,0.00,,,0.04,weatherlink.com 1.10,2013-05-25 23:23:00,
2013-05-25 19:38:00,57.2,38.0,29.99,NW,314,13.0,24.0,49,0.00,,,0.04,weatherlink.com 1.10,2013-05-25 23:38:00,
2013-05-25 19:53:00,56.8,38.0,30.00,WNW,292,15.0,28.0,50,0.00,,,0.04,weatherlink.com 1.10,2013-05-25 23:53:00,
2013-05-25 20:08:00,56.6,38.0,30.01,WNW,291,20.0,34.0,50,0.00,,,0.04,weatherlink.com 1.10,2013-05-26 00:08:00,
2013-05-25 20:23:00,55.0,39.0,30.01,NW,325,9.0,24.0,56,0.00,,,0.04,weatherlink.com 1.10,2013-05-26 00:23:00,
2013-05-25 20:38:00,54.6,40.0,30.01,NW,310,6.0,17.0,58,0.00,,,0.04,weatherlink.com 1.10,2013-05-26 00:38:00,
2013-05-25 20:53:00,55.0,39.0,30.01,NW,309,17.0,19.0,55,0.00,,,0.04,weatherlink.com 1.10,2013-05-26 00:53:00,
2013-05-25 21:08:00,55.5,37.0,30.01,NW,306,14.0,22.0,51,0.00,,,0.04,weatherlink.com 1.10,2013-05-26 01:08:00,
2013-05-25 21:23:00,55.5,38.0,30.01,NW,322,12.0,18.0,52,0.00,,,0.04,weatherlink.com 1.10,2013-05-26 01:23:00,
2013-05-25 21:38:00,55.4,38.0,30.01,WNW,303,12.0,18.0,52,0.00,,,0.04,weatherlink.com 1.10,2013-05-26 01:38:00,
2013-05-25 21:53:00,55.4,37.0,30.01,WNW,285,10.0,20.0,51,0.00,,,0.04,weatherlink.com 1.10,2013-05-26 01:53:00,
2013-05-25 22:08:00,55.3,38.0,30.02,WNW,293,12.0,20.0,53,0.00,,,0.04,weatherlink.com 1.10,2013-05-26 02:08:00,
2013-05-25 22:23:00,54.9,39.0,30.02,NW,310,17.0,19.0,55,0.00,,,0.04,weatherlink.com 1.10,2013-05-26 02:23:00,
2013-05-25 22:38:00,54.6,38.0,30.02,WNW,296,11.0,21.0,54,0.00,,,0.04,weatherlink.com 1.10,2013-05-26 02:38:00,
2013-05-25 22:53:00,54.3,37.0,30.01,WNW,296,18.0,22.0,53,0.00,,,0.04,weatherlink.com 1.10,2013-05-26 02:53:00,
2013-05-25 23:08:00,54.2,37.0,30.01,WNW,298,13.0,19.0,53,0.00,,,0.04,weatherlink.com 1.10,2013-05-26 03:08:00,
2013-05-25 23:23:00,54.1,37.0,30.01,WNW,292,9.0,18.0,53,0.00,,,0.04,weatherlink.com 1.10,2013-05-26 03:23:00,
2013-05-25 23:38:00,53.8,38.0,30.01,West,275,9.0,20.0,55,0.00,,,0.04,weatherlink.com 1.10,2013-05-26 03:38:00,
2013-05-25 23:53:00,53.0,38.0,30.01,West,267,9.0,13.0,57,0.00,,,0.04,weatherlink.com 1.10,2013-05-26 03:53:00,